sat.trackr.live / text

‹ back to catalog

STARLINK-36998

NORAD 68286 · 2026-055AA

PAYLOAD ACTIVE UNKNOWN

§ Identity

Operator
Country
US
Launch date
2026-03-19
Launch site
AFETR
Launch vehicle
Mass (kg)
RCS (m²)

Purposes: comms

External: N2YO · Heavens-Above · Gunter

§ Orbital elements

Epoch: 2026-09-20T00:58:29.312256Z

Period
93.85 min
Inclination
53.1588°
Eccentricity
0.0001055
Mean motion
15.34398224 rev/d
Perigee alt
462.0 km
Apogee alt
463.4 km
Semi-major
6,840.8 km
B*
5.3978e-4
RAAN
131.7706°
Arg perigee
80.0674°
Mean anomaly
280.0448°
Rev number
2,976

§ Raw data

STARLINK-369981 68286U 26055AA  26263.04061704  .00017903  00000+0  53978-3 0  99932 68286  53.1588 131.7706 0001055  80.0674 280.0448 15.34398224 29764

JSON: /api/v1/satellites/68286 · /tle

For live sub-satellite position, see the globe view (requires WebGL).

§ Visibility from observer

Set your observer location to see the next 7 days of passes ≥ 10°. The values pass through the URL so the page stays shareable.

No JS? Fill the form by hand. The geolocation button needs JavaScript.